DW8343 Weather Reports


time (UTC)temp
C
wind
direction
speed
KPH
gust
KPH
rain 1hr
cm
rain 24hr
cm
rain mn
cm
humidity
%
barometer
mb
20260503012244 18 71 0.0 0.0 0.00 0.00 0.00 46 1020.0
20260503011741 19 71 0.0 0.0 0.00 0.00 0.00 46 1019.9
20260503011238 19 71 0.0 0.0 0.00 0.00 0.00 45 1019.8
20260503010734 20 71 0.0 0.0 0.00 0.00 0.00 43 1019.9
20260503010231 20 71 0.0 1.6 0.00 0.00 0.00 43 1019.8
20260503005729 20 71 0.0 0.0 0.00 0.00 0.00 42 1019.9
20260503005226 20 71 0.0 0.0 0.00 0.00 0.00 43 1020.0
20260503004722 20 71 0.0 0.0 0.00 0.00 0.00 42 1019.7
20260503004220 20 71 0.0 0.0 0.00 0.00 0.00 41 1019.9
20260503003717 20 71 0.0 0.0 0.00 0.00 0.00 40 1019.8
20260503003214 20 71 0.0 1.6 0.00 0.00 0.00 40 1019.8
20260503002711 21 71 0.0 0.0 0.00 0.00 0.00 41 1019.8
20260503002208 21 71 1.6 1.6 0.00 0.00 0.00 39 1020.0
20260503001704 21 71 0.0 1.6 0.00 0.00 0.00 41 1019.8
20260503001200 21 71 1.6 4.8 0.00 0.00 0.00 39 1019.9
20260503000658 22 337 0.0 0.0 0.00 0.00 0.00 37 1020.0
20260503000155 22 337 0.0 0.0 0.00 0.00 0.00 36 1019.8
20260502235652 22 337 0.0 1.6 0.00 0.00 0.00 38 1019.8
20260502235150 22 337 0.0 1.6 0.00 0.00 0.00 38 1019.8
20260502234646 22 257 0.0 3.2 0.00 0.00 0.00 39 1019.9
20260502234143 22 257 0.0 0.0 0.00 0.00 0.00 37 1019.9
20260502233638 22 257 0.0 0.0 0.00 0.00 0.00 38 1020.2
20260502233130 22 256 1.6 1.6 0.00 0.00 0.00 36 1020.0
20260502232626 23 8 0.0 1.6 0.00 0.00 0.00 38 1020.1
20260502232124 23 24 0.0 1.6 0.00 0.00 0.00 37 1019.9
20260502231620 22 23 0.0 3.2 0.00 0.00 0.00 37 1019.8
20260502231118 22 8 0.0 3.2 0.00 0.00 0.00 39 1020.2
20260502230616 22 318 0.0 0.0 0.00 0.00 0.00 37 1020.1
20260502230114 22 321 0.0 1.6 0.00 0.00 0.00 38 1020.2
20260502225609 23 10 1.6 1.6 0.00 0.00 0.00 37 1020.0
20260502225107 23 158 1.6 3.2 0.00 0.00 0.00 36 1020.0
20260502224603 23 87 1.6 6.4 0.00 0.00 0.00 37 1020.1
20260502224100 23 92 0.0 3.2 0.00 0.00 0.00 36 1020.0
20260502223558 23 239 3.2 4.8 0.00 0.00 0.00 35 1020.1
20260502223056 23 10 0.0 1.6 0.00 0.00 0.00 37 1020.1
20260502222553 24 128 1.6 4.8 0.00 0.00 0.00 35 1020.2
20260502222049 23 343 0.0 1.6 0.00 0.00 0.00 36 1020.2
20260502221545 23 352 0.0 4.8 0.00 0.00 0.00 38 1020.2
20260502221042 23 26 1.6 4.8 0.00 0.00 0.00 38 1020.3
20260502220538 24 3 1.6 4.8 0.00 0.00 0.00 37 1020.2
20260502220035 23 92 0.0 3.2 0.00 0.00 0.00 40 1020.5
20260502215532 23 92 1.6 3.2 0.00 0.00 0.00 36 1020.4
20260502215029 25 92 0.0 1.6 0.00 0.00 0.00 34 1020.6
20260502214526 24 92 0.0 3.2 0.00 0.00 0.00 36 1020.4
20260502214024 23 92 1.6 3.2 0.00 0.00 0.00 39 1020.6
20260502213520 23 235 1.6 3.2 0.00 0.00 0.00 37 1020.7
20260502213018 24 222 3.2 3.2 0.00 0.00 0.00 35 1020.6
20260502212516 24 10 0.0 1.6 0.00 0.00 0.00 38 1020.8
20260502212013 25 252 1.6 1.6 0.00 0.00 0.00 39 1020.7
20260502211509 23 294 1.6 3.2 0.00 0.00 0.00 36 1020.8
20260502211006 24 32 0.0 1.6 0.00 0.00 0.00 37 1020.9
20260502210503 23 114 3.2 3.2 0.00 0.00 0.00 37 1020.9
20260502210000 24 4 0.0 1.6 0.00 0.00 0.00 36 1020.9
20260502205456 24 274 3.2 3.2 0.00 0.00 0.00 39 1021.0
20260502204954 24 309 1.6 3.2 0.00 0.00 0.00 39 1021.1
20260502204450 24 11 0.0 1.6 0.00 0.00 0.00 42 1021.0
20260502203948 23 103 6.4 9.7 0.00 0.00 0.00 38 1021.1
20260502203445 22 97 4.8 6.4 0.00 0.00 0.00 37 1021.3
20260502202942 23 41 3.2 4.8 0.00 0.00 0.00 40 1021.4
20260502202438 23 6 1.6 4.8 0.00 0.00 0.00 39 1021.5
20260502201937 23 350 0.0 1.6 0.00 0.00 0.00 39 1021.4
20260502201432 23 309 0.0 3.2 0.00 0.00 0.00 42 1021.5
20260502200929 23 3 0.0 1.6 0.00 0.00 0.00 41 1021.6
20260502200424 22 3 0.0 3.2 0.00 0.00 0.00 41 1021.6
20260502195923 23 9 1.6 1.6 0.00 0.00 0.00 39 1021.6
20260502195420 23 190 1.6 3.2 0.00 0.00 0.00 38 1021.4
20260502194916 23 210 1.6 3.2 0.00 0.00 0.00 42 1021.6
20260502194413 22 343 1.6 4.8 0.00 0.00 0.00 41 1021.6
20260502193909 23 238 1.6 3.2 0.00 0.00 0.00 39 1021.7
20260502193406 23 5 0.0 4.8 0.00 0.00 0.00 42 1021.8
20260502192901 23 88 1.6 3.2 0.00 0.00 0.00 41 1021.8
20260502192359 22 4 0.0 1.6 0.00 0.00 0.00 45 1021.8
20260502191855 22 162 1.6 3.2 0.00 0.00 0.00 41 1021.7
20260502191354 23 351 1.6 3.2 0.00 0.00 0.00 42 1021.8
20260502190851 22 23 3.2 4.8 0.00 0.00 0.00 43 1022.0
20260502190348 23 54 0.0 1.6 0.00 0.00 0.00 41 1022.0
20260502185844 22 303 0.0 3.2 0.00 0.00 0.00 40 1022.2
20260502185339 22 195 1.6 1.6 0.00 0.00 0.00 41 1022.2
20260502184837 22 196 3.2 3.2 0.00 0.00 0.00 40 1022.2
20260502184332 22 33 1.6 3.2 0.00 0.00 0.00 43 1022.1
20260502183829 22 113 1.6 3.2 0.00 0.00 0.00 41 1022.1
20260502183325 22 271 1.6 3.2 0.00 0.00 0.00 44 1022.4
20260502182820 22 340 0.0 1.6 0.00 0.00 0.00 41 1022.5
20260502182316 21 8 1.6 3.2 0.00 0.00 0.00 42 1022.6
20260502181813 22 101 3.2 4.8 0.00 0.00 0.00 41 1022.7
20260502181312 21 227 0.0 4.8 0.00 0.00 0.00 46 1022.7
20260502180809 21 175 3.2 4.8 0.00 0.00 0.00 43 1022.7
20260502180307 21 218 0.0 3.2 0.00 0.00 0.00 45 1022.9
20260502170220 20 344 0.0 4.8 0.00 0.00 0.00 51 1022.9
20260502164207 20 220 0.0 3.2 0.00 0.00 0.00 50 1023.0
20260502163702 20 264 0.0 3.2 0.00 0.00 0.00 48 1023.1
20260502163159 20 203 0.0 1.6 0.00 0.00 0.00 50 1022.9
20260502162655 19 62 1.6 1.6 0.00 0.00 0.00 51 1023.2
20260502162152 18 55 0.0 1.6 0.00 0.00 0.00 55 1022.9
20260502161650 18 55 0.0 1.6 0.00 0.00 0.00 52 1023.0
20260502161146 18 55 0.0 1.6 0.00 0.00 0.00 51 1023.0
20260502160644 18 243 0.0 1.6 0.00 0.00 0.00 51 1023.0
20260502160143 17 356 0.0 0.0 0.00 0.00 0.00 52 1022.9
20260502152057 16 313 0.0 0.0 0.00 0.00 0.00 54 1023.0
20260502151554 16 304 0.0 1.6 0.00 0.00 0.00 56 1023.0
20260502151052 16 262 0.0 1.6 0.00 0.00 0.00 56 1023.0
20260502150549 16 248 1.6 3.2 0.00 0.00 0.00 54 1023.0
20260502130427 12 308 1.6 1.6 0.00 0.00 0.00 67 1022.4
20260502123410 10 330 0.0 1.6 0.00 0.00 0.00 73 1022.1
20260502122908 10 222 0.0 1.6 0.00 0.00 0.00 75 1022.1
20260502122403 10 320 0.0 0.0 0.00 0.00 0.00 76 1021.9
20260502121902 10 278 0.0 0.0 0.00 0.00 0.00 75 1021.8
20260502121358 10 283 1.6 3.2 0.00 0.00 0.00 75 1021.7
20260502120856 10 110 0.0 0.0 0.00 0.00 0.00 75 1021.6
20260502120352 10 46 0.0 0.0 0.00 0.00 0.00 74 1021.8
20260502115849 10 277 0.0 0.0 0.00 0.00 0.00 74 1021.5
20260502115347 10 60 0.0 3.2 0.00 0.00 0.00 74 1021.4
20260502114843 10 334 0.0 0.0 0.00 0.00 0.00 73 1021.3
20260502114340 9 330 0.0 0.0 0.00 0.00 0.00 74 1021.5
20260502113837 10 319 0.0 0.0 0.00 0.00 0.00 74 1021.7
20260502113334 10 269 0.0 0.0 0.00 0.00 0.00 73 1021.5
20260502112833 10 345 0.0 0.0 0.00 0.00 0.00 71 1021.7
20260502112329 10 346 0.0 0.0 0.00 0.00 0.00 71 1021.7
20260502111827 10 1 0.0 1.6 0.00 0.00 0.00 70 1021.6
20260502111324 10 138 0.0 0.0 0.00 0.00 0.00 70 1021.6
20260502110822 10 138 0.0 0.0 0.00 0.00 0.00 71 1021.7
20260502110320 10 138 0.0 0.0 0.00 0.00 0.00 70 1021.4
20260502105817 11 138 0.0 0.0 0.00 0.00 0.00 68 1021.7
20260502105314 11 138 0.0 0.0 0.00 0.00 0.00 68 1021.4
20260502104812 11 138 0.0 1.6 0.00 0.00 0.00 67 1021.5
20260502104308 11 235 0.0 1.6 0.00 0.00 0.00 67 1021.6
20260502103806 11 19 0.0 0.0 0.00 0.00 0.00 67 1021.8
20260502103303 12 4 0.0 0.0 0.00 0.00 0.00 66 1022.0
20260502102800 12 4 0.0 0.0 0.00 0.00 0.00 65 1021.8
20260502102256 12 4 0.0 0.0 0.00 0.00 0.00 65 1022.2
20260502101755 12 4 0.0 0.0 0.00 0.00 0.00 66 1022.2
20260502101252 11 341 0.0 0.0 0.00 0.00 0.00 67 1022.4
20260502100750 11 331 0.0 1.6 0.00 0.00 0.00 68 1022.5
20260502100249 11 307 0.0 0.0 0.00 0.00 0.00 68 1022.2
20260502091223 9 262 0.0 0.0 0.00 0.00 0.00 77 1020.7
20260502090720 9 261 0.0 0.0 0.00 0.00 0.00 75 1020.7
20260502090217 9 262 0.0 0.0 0.00 0.00 0.00 73 1020.7
20260502071113 10 262 0.0 0.0 0.00 0.00 0.00 70 1020.5
20260502070611 10 262 0.0 0.0 0.00 0.00 0.00 69 1020.7
20260502070109 10 262 0.0 0.0 0.00 0.00 0.00 69 1020.6
20260502065607 11 262 0.0 0.0 0.00 0.00 0.00 69 1020.6
20260502065104 11 262 0.0 0.0 0.00 0.00 0.00 68 1020.6
20260502064603 11 262 0.0 0.0 0.00 0.00 0.00 67 1020.6
20260502064100 11 262 0.0 1.6 0.00 0.00 0.00 66 1020.5
20260502063557 11 339 0.0 1.6 0.00 0.00 0.00 66 1020.7
20260502063055 11 337 1.6 3.2 0.00 0.00 0.00 67 1020.7
20260502062552 10 16 0.0 0.0 0.00 0.00 0.00 69 1020.7
20260502062050 11 16 0.0 0.0 0.00 0.00 0.00 69 1020.7
20260502061548 11 16 0.0 0.0 0.00 0.00 0.00 68 1020.8
20260502061045 11 16 0.0 0.0 0.00 0.00 0.00 69 1020.9
20260502060545 11 16 0.0 0.0 0.00 0.00 0.00 68 1020.9
20260502060042 11 16 0.0 0.0 0.00 0.00 0.00 67 1020.9
20260502055539 11 16 0.0 0.0 0.00 0.00 0.00 66 1020.9
20260502055038 11 16 0.0 0.0 0.00 0.00 0.00 67 1020.7
20260502054536 11 16 0.0 0.0 0.00 0.00 0.00 66 1020.8
20260502054033 11 16 0.0 0.0 0.00 0.00 0.00 66 1020.8
20260502053530 11 16 0.0 0.0 0.00 0.00 0.00 66 1020.8
20260502053028 11 16 0.0 0.0 0.00 0.00 0.00 69 1020.8
20260502052526 11 16 0.0 0.0 0.00 0.00 0.00 69 1020.7
20260502052024 11 16 0.0 0.0 0.00 0.00 0.00 70 1020.7
20260502051521 11 16 0.0 0.0 0.00 0.00 0.00 70 1020.7
20260502051019 11 16 0.0 0.0 0.00 0.00 0.00 69 1020.6
20260502050515 11 16 0.0 0.0 0.00 0.00 0.00 70 1020.8
20260502050012 11 16 0.0 0.0 0.00 0.00 0.00 70 1020.6
20260502045509 11 16 0.0 0.0 0.00 0.00 0.00 70 1020.8
20260502045006 11 16 0.0 0.0 0.00 0.00 0.00 71 1020.7
20260502044502 11 16 0.0 0.0 0.00 0.00 0.00 71 1020.9
20260502043959 11 16 0.0 0.0 0.00 0.00 0.00 70 1020.7
20260502043456 11 16 0.0 0.0 0.00 0.00 0.00 69 1020.8
20260502042955 11 16 0.0 0.0 0.00 0.00 0.00 70 1020.8
20260502042453 11 16 0.0 0.0 0.00 0.00 0.00 68 1020.8
20260502041950 11 16 0.0 0.0 0.00 0.00 0.00 68 1020.8
20260502041448 11 16 0.0 0.0 0.00 0.00 0.00 67 1020.7
20260502040944 12 16 0.0 0.0 0.00 0.00 0.00 67 1020.6
20260502040441 12 16 0.0 0.0 0.00 0.00 0.00 67 1020.8
20260502035937 12 16 0.0 0.0 0.00 0.00 0.00 67 1020.8
20260502035434 12 16 0.0 0.0 0.00 0.00 0.00 65 1020.8
20260502034932 12 16 0.0 0.0 0.00 0.00 0.00 64 1020.7
20260502034430 12 16 0.0 0.0 0.00 0.00 0.00 64 1020.7
20260502033928 12 16 0.0 0.0 0.00 0.00 0.00 63 1020.5
20260502033425 12 16 0.0 0.0 0.00 0.00 0.00 63 1020.4
20260502032922 12 16 0.0 0.0 0.00 0.00 0.00 63 1020.7
20260502032418 12 16 0.0 0.0 0.00 0.00 0.00 62 1020.5
20260502031916 13 16 0.0 0.0 0.00 0.00 0.00 62 1020.5
20260502031414 13 16 0.0 0.0 0.00 0.00 0.00 62 1020.7
20260502030912 13 16 0.0 0.0 0.00 0.00 0.00 62 1020.4
20260502030410 13 16 0.0 0.0 0.00 0.00 0.00 62 1020.4
20260502025908 13 16 0.0 0.0 0.00 0.00 0.00 63 1020.6
20260502025404 13 16 0.0 0.0 0.00 0.00 0.00 62 1020.2
20260502024902 13 16 0.0 0.0 0.00 0.00 0.00 61 1020.4
20260502024400 13 16 0.0 0.0 0.00 0.00 0.00 61 1020.2
20260502023858 13 16 0.0 0.0 0.00 0.00 0.00 60 1020.4
20260502023355 13 16 0.0 0.0 0.00 0.00 0.00 60 1020.1
20260502022853 13 16 0.0 0.0 0.00 0.00 0.00 60 1020.2
20260502022349 13 16 0.0 0.0 0.00 0.00 0.00 59 1020.0
20260502021846 13 16 0.0 0.0 0.00 0.00 0.00 60 1020.3
20260502021343 13 16 0.0 0.0 0.00 0.00 0.00 59 1020.0
20260502020840 13 16 0.0 0.0 0.00 0.00 0.00 58 1019.8
20260502020338 13 16 0.0 0.0 0.00 0.00 0.00 58 1019.8
20260502015835 13 16 0.0 0.0 0.00 0.00 0.00 58 1019.6
20260502015332 13 16 0.0 0.0 0.00 0.00 0.00 56 1019.7
20260502014829 14 16 0.0 0.0 0.00 0.00 0.00 55 1019.7
20260502014326 14 16 0.0 0.0 0.00 0.00 0.00 54 1019.5
20260502013822 15 16 0.0 0.0 0.00 0.00 0.00 54 1019.5
20260502013318 15 16 0.0 0.0 0.00 0.00 0.00 51 1019.5
20260502012814 15 16 0.0 0.0 0.00 0.00 0.00 50 1019.3